SL-3 DEB, 25255

Orbit data source: Space-Track

SL-3 DEB, 25255 is space debris in LEO originally from a launch on Thu, 14 May 1981 UTC launched from the Plesetsk Missile And Space Complex (PKMTR). Debris objects in space refer to the collection of defunct objects orbiting the Earth. Examples of debris include non-operational satellites, rocket bodies, and fragments generated from explosions, collisions, or faulty payload assembly.

Loading next visibility...
Identifier
25255, 1981-043D
Orbit
LEO
Country
Flag of CISCIS
Related business
Manufacturer
Unknown
Mission
Spacecraft
Bus & Motor
Unknown
Mass
Unknown
Launch date (UTC)
1981-05-14 (44 years ago)
Launch vehicle
Unknown
Launch site
Plesetsk Missile And Space Complex (PKMTR)
Object type
Payload
Rocket body
Debris
Shape & HBR
Unknown
Radar Cross Section
Small (<0.1 m²)

Expand to show TLE details & history
Last TLE update: 19 hours ago

TLE from 19 hours ago
0 SL-3 DEB
1 25255U 81043D   25259.52051285  .00000028  00000-0  89862-5 0  9994
2 25255  81.2934  84.2533 0044865 281.5911 106.7714 14.08592418483460
Epoch: 2025-09-16T12:29Z
TLE epoch observation values (Epoch: 2025-09-16T12:29:32.31Z)
Latitude
28.53598°
Longitude
-94.08944°
Altitude
877.21 km
Speed
7.411 km/s
True Right ascension
05h 56m 01s
True Declination
28° 23' 39"
Sunlit
Object was in daylight at epoch
Visualization orbit readout
Latitude
Unknown
Longitude
Unknown
Altitude
Unknown
Speed
Unknown
Apparent Right ascension
Unknown
Apparent Declination
Unknown
Sunlit
N/A
Visualization observer readout
Local Sidereal Time
00:38:36
Azimuth
Unknown
Elevation
Unknown
Doppler factor
Unknown
Orbital elements
Apogee altitude
893.846 km
Perigee altitude
828.886 km
Semi-major axis
7,239.503 km
Eccentricity
0.00449
Inclination
81.2934°
RAAN
84.2533°
Arg. of periapsis
281.5911°
True anomaly
107.26285°
Mean anomaly
106.7714°
Eccentric anomaly
107.0172°
Mean motion
3.52355 °/min
Orbital period
102.17 mins
BSTAR
0.0000089862
Loading maneuver chart data...
Computing Atmospheric mass density...
Loading historical data...
Loading historical data...
Loading historical data...
Loading historical data...
Loading historical data...
Loading historical data...
Loading historical data...

Documentation

Showing up to 5 results
|